Nashville, TN

12:08 AM CDT on July 31, 2016 (GMT -0500)
Nashville International

Weather History for KBNA - December, 2012

Change the Weather History Date:

Friday, December 14, 2012

  Actual Average Record
Temperature  
Mean Temperature 43 °F 40 °F  
Max Temperature 59 °F 50 °F 76 °F (1984)
Min Temperature 26 °F 31 °F 5 °F (1901)
Degree Days  
Heating Degree Days 22    
Month to date heating degree days 176  
Since 1 July heating degree days 930  
Cooling Degree Days 0    
Month to date cooling degree days 2  
Year to date cooling degree days 1977  
Moisture  
Dew Point 32 °F    
Average Humidity 63    
Maximum Humidity 85    
Minimum Humidity 40    
Precipitation  
Precipitation 0.00 in 0.15 in 2.91 in (1951)
Month to date precipitation 1.74 2.15  
Year to date precipitation 42.85 45.16  
Snow  
Snow 0.00 in - - ()
Month to date snowfall 0.0  
Snow Depth 0.00 in    
Sea Level Pressure  
Sea Level Pressure 30.26 in    
Wind  
Wind Speed 3 mph (SSE)    
Max Wind Speed 9 mph    
Max Gust Speed 13 mph    
Visibility 10 miles    
Events      
T = Trace of Precipitation, MM = Missing Value Source: NWS Daily Summary

Daily Weather History Graph

Daily Weather History Graph

Search for Another Location

Airport or City:

Trip Planner

Search our weather history database for the weather conditions in past years. The results will help you decide how hot, cold, wet, or windy it might be!

Date:

Astronomy

Dec. 14, 2012 Rise Set
Actual Time 6:50 AM CST 4:33 PM CST
Civil Twilight 6:21 AM CST 5:02 PM CST
Nautical Twilight 5:49 AM CST 5:34 PM CST
Astronomical Twilight 5:17 AM CST 6:05 PM CST
Moon 7:55 AM CST (12/14) 6:23 PM CST (12/14)
Length of Visible Light 10h 40m
Length of Day
9h 43m
Waxing Crescent, 3% of the Moon is Illuminated
Dec 14
Waxing Crescent
Dec 19
First Quarter
Dec 28
Full
Jan 4
Last Quarter
Jan 11
New

Hourly Weather History & Observations

Time (CST) Temp. Windchill Dew Point Humidity Pressure Visibility Wind Dir Wind Speed Gust Speed Precip Events Conditions
12:53 AM 28.9 °F 25.2 °F 24.1 °F 82% 30.33 in 10.0 mi South 3.5 mph - N/A   Clear
1:53 AM 30.0 °F - 25.0 °F 82% 30.35 in 10.0 mi Calm Calm - N/A   Clear
2:53 AM 28.9 °F - 24.1 °F 82% 30.34 in 10.0 mi Calm Calm - N/A   Clear
3:53 AM 27.0 °F 23.0 °F 23.0 °F 85% 30.32 in 10.0 mi South 3.5 mph - N/A   Clear
4:53 AM 27.0 °F 23.0 °F 23.0 °F 85% 30.33 in 10.0 mi South 3.5 mph - N/A   Clear
5:53 AM 28.4 °F - 24.8 °F 86% 30.33 in 10.0 mi Calm Calm - N/A   Partly Cloudy
6:53 AM 28.0 °F - 23.0 °F 81% 30.36 in 10.0 mi Calm Calm - N/A   Partly Cloudy
7:53 AM 30.0 °F - 26.1 °F 85% 30.36 in 10.0 mi Calm Calm - N/A   Partly Cloudy
8:53 AM 39.0 °F - 30.0 °F 70% 30.36 in 10.0 mi Calm Calm - N/A   Partly Cloudy
9:53 AM 46.0 °F 43.9 °F 32.0 °F 58% 30.36 in 10.0 mi South 4.6 mph - N/A   Scattered Clouds
10:53 AM 54.0 °F - 37.0 °F 53% 30.32 in 10.0 mi SE 3.5 mph - N/A   Mostly Cloudy
11:53 AM 57.9 °F - 37.0 °F 46% 30.30 in 10.0 mi Variable 5.8 mph - N/A   Mostly Cloudy
12:53 PM 57.2 °F - 35.6 °F 44% 30.25 in 10.0 mi SSW 4.6 mph - N/A   Mostly Cloudy
1:53 PM 57.9 °F - 34.0 °F 41% 30.24 in 10.0 mi SW 5.8 mph - N/A   Mostly Cloudy
2:53 PM 57.9 °F - 34.0 °F 41% 30.22 in 10.0 mi SSE 4.6 mph - N/A   Mostly Cloudy
3:53 PM 55.0 °F - 34.0 °F 45% 30.22 in 10.0 mi SSE 3.5 mph - N/A   Mostly Cloudy
4:53 PM 53.1 °F - 34.0 °F 48% 30.21 in 10.0 mi Calm Calm - N/A   Mostly Cloudy
5:53 PM 51.1 °F - 35.1 °F 54% 30.21 in 10.0 mi Calm Calm - N/A   Overcast
6:53 PM 50.0 °F - 36.0 °F 59% 30.21 in 10.0 mi South 3.5 mph - N/A   Overcast
7:53 PM 48.9 °F - 37.0 °F 64% 30.19 in 10.0 mi Calm Calm - N/A   Overcast
8:53 PM 46.9 °F - 37.0 °F 68% 30.17 in 10.0 mi SSE 5.8 mph - N/A   Overcast
9:53 PM 46.0 °F 43.9 °F 37.0 °F 71% 30.15 in 10.0 mi SE 4.6 mph - N/A   Overcast
10:53 PM 45.0 °F 42.6 °F 37.0 °F 74% 30.13 in 10.0 mi SE 4.6 mph - N/A   Overcast
11:53 PM 46.9 °F - 37.0 °F 68% 30.13 in 10.0 mi Calm Calm - N/A   Overcast